TimeEDT,TemperatureF,Dew PointF,Humidity,Sea Level PressureIn,VisibilityMPH,Wind Direction,Wind SpeedMPH,Gust SpeedMPH,PrecipitationIn,Events,Conditions,WindDirDegrees,DateUTC
12:53 AM,57.0,50.0,77,29.95,10.0,North,4.6,-,N/A,,Overcast,360,2014-03-25 04:53:00
1:22 AM,55.9,51.1,84,29.95,10.0,NNW,4.6,-,N/A,,Overcast,330,2014-03-25 05:22:00
1:53 AM,55.9,50.0,80,29.94,10.0,NNW,3.5,-,N/A,,Overcast,340,2014-03-25 05:53:00
2:53 AM,55.9,50.0,80,29.91,10.0,NNW,5.8,-,N/A,,Overcast,330,2014-03-25 06:53:00
3:53 AM,55.0,51.1,86,29.90,9.0,NW,5.8,-,N/A,,Overcast,320,2014-03-25 07:53:00
4:00 AM,55.0,50.0,83,29.91,9.0,NW,8.1,-,N/A,,Overcast,320,2014-03-25 08:00:00
4:12 AM,55.0,51.1,86,29.89,9.0,NW,8.1,-,N/A,,Overcast,320,2014-03-25 08:12:00
4:28 AM,55.0,50.0,83,29.89,9.0,NW,6.9,-,N/A,,Overcast,320,2014-03-25 08:28:00
4:53 AM,55.0,51.1,86,29.89,10.0,NNW,5.8,-,N/A,,Overcast,330,2014-03-25 08:53:00
5:17 AM,55.0,50.0,83,29.89,10.0,NNW,8.1,-,N/A,,Overcast,330,2014-03-25 09:17:00
5:53 AM,55.0,50.0,83,29.90,10.0,North,5.8,-,N/A,,Overcast,350,2014-03-25 09:53:00
6:33 AM,55.0,50.0,83,29.90,9.0,NW,3.5,-,N/A,,Overcast,320,2014-03-25 10:33:00
6:53 AM,55.0,50.0,83,29.91,9.0,Calm,Calm,-,N/A,,Overcast,0,2014-03-25 10:53:00
7:53 AM,55.0,51.1,86,29.91,8.0,NNW,5.8,-,N/A,,Overcast,330,2014-03-25 11:53:00
8:36 AM,55.0,51.1,86,29.94,8.0,NNW,4.6,-,N/A,,Overcast,330,2014-03-25 12:36:00
8:53 AM,55.9,51.1,84,29.94,7.0,NNW,6.9,-,N/A,,Overcast,330,2014-03-25 12:53:00
9:27 AM,57.0,52.0,83,29.94,8.0,NW,5.8,-,N/A,,Overcast,320,2014-03-25 13:27:00
9:53 AM,57.9,52.0,81,29.94,9.0,WNW,3.5,-,N/A,,Overcast,300,2014-03-25 13:53:00
10:53 AM,66.0,54.0,65,29.94,9.0,NW,17.3,21.9,N/A,,Clear,310,2014-03-25 14:53:00
11:53 AM,69.1,52.0,54,29.93,10.0,WNW,15.0,23.0,N/A,,Clear,290,2014-03-25 15:53:00
12:53 PM,71.1,51.1,49,29.91,10.0,West,16.1,23.0,N/A,,Mostly Cloudy,270,2014-03-25 16:53:00
1:53 PM,72.0,48.9,44,29.88,10.0,WNW,12.7,-,N/A,,Partly Cloudy,290,2014-03-25 17:53:00
2:53 PM,73.0,45.0,37,29.86,10.0,WNW,13.8,24.2,N/A,,Clear,300,2014-03-25 18:53:00
3:53 PM,73.0,37.9,28,29.84,10.0,WNW,17.3,25.3,N/A,,Clear,290,2014-03-25 19:53:00
4:53 PM,73.0,30.9,21,29.83,10.0,WNW,11.5,29.9,N/A,,Clear,290,2014-03-25 20:53:00
5:53 PM,70.0,28.0,21,29.85,10.0,NW,17.3,26.5,N/A,,Clear,310,2014-03-25 21:53:00
6:53 PM,68.0,27.0,21,29.88,10.0,WNW,13.8,24.2,N/A,,Clear,290,2014-03-25 22:53:00
7:53 PM,63.0,27.0,26,29.92,10.0,NW,12.7,-,N/A,,Overcast,310,2014-03-25 23:53:00
8:53 PM,59.0,28.0,31,29.98,10.0,NNW,10.4,19.6,N/A,,Clear,330,2014-03-26 00:53:00
9:53 PM,57.0,23.0,27,30.03,10.0,NW,11.5,20.7,N/A,,Clear,310,2014-03-26 01:53:00
10:53 PM,54.0,23.0,30,30.07,10.0,NW,8.1,-,N/A,,Clear,310,2014-03-26 02:53:00
11:53 PM,53.1,24.1,32,30.09,10.0,North,10.4,-,N/A,,Clear,350,2014-03-26 03:53:00